Lid_Strength_Index
2 2 1 1 1 1 1 0 0 -0 -0 0 1 1 1 0 -0 -1 -1 -1 -1 -1 -1 -1 -1 -1 -0 -0 -0 -0 0 1 0 1 1 1 -0 -0 -0 -1 -1 -1 -1
3 2 2 1 1 1 1 1 0 0 0 0 0 0 0 -0 -0 -1 -1 -1 -1 -1 -1 -1 -1 -1 -0 -0 -0 -0 0 1 0 2 2 4 2 0 0 -0 -0 -0 -1
4 3 2 2 1 1 1 1 0 0 0 -0 -0 0 -0 -0 0 0 -0 -1 -1 -1 -1 -1 -1 -1 -0 0 -0 -0 0 2 0 0 2 4 5 3 1 1 0 -0 1
3 3 3 2 2 1 1 1 0 0 0 -0 0 0 1 2 1 0 -0 -1 -1 -1 -1 -1 -1 -1 -0 -0 0 -0 -0 1 1 1 0 1 2 4 5 1 1 2 1
3 3 3 2 1 1 1 1 0 0 -0 -0 -0 1 1 1 0 0 0 -0 -1 -1 -1 -1 -1 -1 -0 -1 -0 -0 -1 0 1 1 2 1 1 2 4 5 3 1 1
3 3 2 2 2 1 1 1 1 1 0 0 0 0 1 1 1 1 1 1 0 -0 -1 -1 -1 -1 -1 -0 -0 -1 -0 -0 0 0 1 2 3 3 3 4 4 3 2
3 3 3 2 2 2 1 1 1 1 0 0 0 0 0 0 1 1 1 1 1 0 -0 -1 -0 -0 -1 -1 -1 -0 -0 -0 0 0 1 1 1 1 2 3 4 4 2
3 3 3 2 2 2 1 1 1 1 1 1 1 0 0 1 1 0 0 0 0 0 -1 -1 -1 -1 -1 -1 -1 -0 -0 -0 0 0 0 1 1 1 1 2 3 5 4
4 3 3 2 2 2 1 1 1 1 1 1 0 0 0 0 0 0 -0 0 -0 -0 -0 -1 -0 -1 -1 -1 -1 0 0 -0 0 0 0 0 0 0 0 1 1 3 6
4 3 3 2 2 1 1 1 1 1 1 1 0 0 0 0 0 -0 0 0 -0 -0 -0 -0 -0 -0 -0 -1 -1 -0 -0 0 0 0 0 0 0 0 0 0 0 1 3
4 3 3 2 2 1 1 1 1 1 1 1 0 0 0 0 -0 0 0 -0 -0 -0 -0 -0 -0 -0 -0 -0 -0 -0 -0 0 0 0 0 0 -0 0 0 0 -0 1 1
4 4 3 3 2 2 2 1 1 1 1 0 0 0 0 0 0 0 0 -0 -0 -0 -0 -0 -0 -0 -0 -0 -0 0 0 0 1 1 0 1 0 0 0 0 0 0 1
4 4 4 3 3 3 2 2 1 1 1 1 1 1 1 1 0 0 -0 -0 -0 -0 -0 -0 0 0 -0 -0 -0 -0 0 0 0 0 0 1 0 1 1 1 1 1 1
5 4 4 4 3 2 2 2 2 1 1 1 1 1 1 1 1 0 0 0 -0 0 0 -0 0 0 -0 -0 -0 0 0 0 0 0 0 0 0 1 1 1 1 1 1
7 6 6 5 4 4 4 4 4 4 3 2 1 1 1 0 0 0 0 0 0 0 0 0 0 -0 0 0 0 0 0 0 1 0 0 0 0 1 1 1 1 1 1
6 6 5 5 5 4 4 3 2 2 1 2 2 1 1 1 1 1 0 0 0 0 0 1 1 0 1 3 3 1 0 0 1 1 0 0 0 1 2 2 1 1 1
6 5 4 4 4 3 3 3 2 1 1 1 1 1 0 0 0 0 0 0 0 0 1 1 0 1 0 5 5 4 0 1 1 1 1 1 0 0 0 3 3 2 1
6 5 5 4 3 3 2 1 1 1 1 1 1 0 0 0 0 0 0 0 0 0 1 1 0 1 1 6 6 5 0 0 1 1 1 1 1 0 0 1 1 1 0
5 4 4 3 2 3 2 1 2 1 2 1 1 1 1 1 1 1 1 0 0 0 0 0 1 1 1 7 8 5 1 1 1 1 1 1 1 3 4 1 1 1 1
5 4 4 4 4 4 4 4 4 3 3 2 1 0 0 1 1 1 0 0 0 0 0 1 0 2 1 10 10 5 1 1 1 1 0 4 1 6 6 1 1 2 1
6 5 5 5 4 4 4 4 4 4 2 2 2 1 0 0 0 0 0 0 1 0 1 1 0 1 3 5 10 8 1 1 2 1 1 1 6 7 7 5 0 1 0
6 6 5 5 4 3 3 3 4 3 2 1 1 1 0 0 0 0 1 1 1 1 1 1 1 1 1 6 7 9 8 8 1 1 1 1 8 9 8 5 6 6 2
5 4 4 3 3 2 2 3 1 1 1 1 1 1 0 0 0 1 1 1 1 2 2 2 2 2 1 1 7 8 8 7 4 2 4 7 9 10 8 7 7 6 1
4 3 3 3 3 2 2 1 1 0 0 1 1 1 1 1 1 1 1 1 2 2 2 2 2 2 1 1 1 2 2 5 5 6 4 5 6 5 3 4 4 1 0
3 2 3 3 2 1 1 1 1 1 1 1 1 1 1 1 1 1 1 1 1 1 2 2 1 2 2 1 4 4 2 1 4 4 2 2 3 2 1 1 2 2 1
2 2 2 2 2 2 2 1 1 1 1 2 2 2 2 1 1 1 1 2 4 6 7 8 5 1 5 9 10 11 11 10 9 2 2 3 3 2 2 2 2 1 2